User: anonymous   Login
Location: Lansingburgh
(42.7845°N, 73.6696°W)
Time: 20:09:24
(UTC+00:00)
Language:

Cosmos 2219 - Orbit

View from above orbital plane
View from above orbital plane
View from above satellite
View from above satellite

Ground track
Ground track

The orbit data is extracted from the following two-line orbital elements,

1 22219U 92076A   20090.81421098 -.00000261 +00000-0 -11278-3 0  9997
2 22219 071.0591 231.9852 0020819 273.8925 085.9817 14.13637893411703
Epoch (UTC): 30 March 2020 19:32:27
Eccentricity: 0.0020819
inclination: 71.0591°
perigee height: 832 km
apogee height: 862 km
right ascension of ascending node: 231.9852°
argument of perigee: 273.8925°
revolutions per day: 14.13637893
mean anomaly at epoch: 85.9817°
orbit number at epoch: 41170

The dashed part of the orbit path shows where the satellite is in the earth's shadow,  

DLR